• In Netherlands
  • List of Countries
  • For 7 days
  • Water Temperature
  • Satellite Maps
  • Weather Map
  • Weather Widgets
  • user-avatar
    Login

    Hourly Weather Sveti Vlas

    Today, 21 February, Tuesday

    Time Temperature Precipitation Wind Pressure Humidity
    00:00 0°C° 0 mm 4 mps 758 mmHg 85%
    01:00 -1°C° 0 mm 4 mps 757 mmHg 84%
    02:00 0°C° 0 mm 5 mps 757 mmHg 82%
    03:00 -1°C° 0 mm 4 mps 757 mmHg 82%
    04:00 -1°C° 0 mm 4 mps 757 mmHg 82%
    05:00 -1°C° 0 mm 4 mps 757 mmHg 82%
    06:00 -1°C° 0 mm 4 mps 756 mmHg 81%
    07:00 0°C° 0 mm 4 mps 756 mmHg 79%
    08:00 0°C° 0 mm 5 mps 756 mmHg 75%
    09:00 +2°C° 0 mm 5 mps 756 mmHg 70%
    10:00 +5°C° 0 mm 5 mps 756 mmHg 64%
    11:00 +6°C° 0 mm 5 mps 756 mmHg 59%
    12:00 +7°C° 0 mm 5 mps 755 mmHg 58%
    13:00 +8°C° 0 mm 5 mps 755 mmHg 58%
    14:00 +8°C° 0 mm 4 mps 754 mmHg 57%
    15:00 +8°C° 0 mm 4 mps 754 mmHg 63%
    16:00 +8°C° 0 mm 3 mps 754 mmHg 68%
    17:00 +7°C° 0 mm 3 mps 754 mmHg 73%
    18:00 +5°C° 0 mm 3 mps 754 mmHg 76%
    19:00 +4°C° 0 mm 3 mps 754 mmHg 79%
    20:00 +3°C° 0 mm 4 mps 753 mmHg 81%
    21:00 +3°C° 0 mm 4 mps 753 mmHg 81%
    22:00 +3°C° 0 mm 4 mps 753 mmHg 80%
    23:00 +3°C° 0 mm 4 mps 753 mmHg 80%

    Tomorrow, 22 February, Wednesday

    Time Temperature Precipitation Wind Pressure Humidity
    00:00 +3°C° 0.1 mm 4 mps 753 mmHg 80%
    01:00 +2°C° 0.1 mm 5 mps 753 mmHg 81%
    02:00 +3°C° 0.1 mm 5 mps 753 mmHg 82%
    03:00 +2°C° 0.2 mm 5 mps 753 mmHg 81%
    04:00 +2°C° 0.2 mm 5 mps 753 mmHg 81%
    05:00 +2°C° 0.2 mm 5 mps 753 mmHg 80%
    06:00 +2°C° 0 mm 5 mps 754 mmHg 81%
    07:00 +2°C° 0 mm 6 mps 754 mmHg 81%
    08:00 +2°C° 0 mm 6 mps 755 mmHg 81%
    09:00 +4°C° 0 mm 6 mps 755 mmHg 78%
    10:00 +7°C° 0 mm 6 mps 756 mmHg 75%
    11:00 +8°C° 0 mm 6 mps 756 mmHg 72%
    12:00 +9°C° 0 mm 6 mps 756 mmHg 70%
    13:00 +10°C° 0 mm 5 mps 756 mmHg 68%
    14:00 +11°C° 0 mm 4 mps 756 mmHg 66%
    15:00 +11°C° 0 mm 3 mps 756 mmHg 69%
    16:00 +10°C° 0 mm 3 mps 756 mmHg 72%
    17:00 +10°C° 0 mm 2 mps 756 mmHg 76%
    18:00 +9°C° 0 mm 2 mps 756 mmHg 78%
    19:00 +8°C° 0 mm 3 mps 756 mmHg 81%
    20:00 +6°C° 0 mm 4 mps 757 mmHg 83%
    21:00 +5°C° 0 mm 4 mps 757 mmHg 83%
    22:00 +5°C° 0 mm 4 mps 756 mmHg 83%
    23:00 +5°C° 0 mm 4 mps 756 mmHg 82%

    Day after tomorrow, 23 February, Thursday

    Time Temperature Precipitation Wind Pressure Humidity
    00:00 +5°C° 0 mm 4 mps 756 mmHg 82%
    01:00 +5°C° 0 mm 4 mps 756 mmHg 82%
    02:00 +5°C° 0 mm 4 mps 756 mmHg 82%
    03:00 +5°C° 0 mm 4 mps 756 mmHg 82%
    04:00 +4°C° 0 mm 4 mps 756 mmHg 81%
    05:00 +3°C° 0 mm 5 mps 755 mmHg 81%
    06:00 +5°C° 0 mm 5 mps 755 mmHg 80%
    07:00 +5°C° 0 mm 5 mps 755 mmHg 79%
    08:00 +5°C° 0 mm 5 mps 755 mmHg 78%
    09:00 +7°C° 0 mm 5 mps 756 mmHg 73%
    10:00 +9°C° 0 mm 5 mps 756 mmHg 68%
    11:00 +12°C° 0 mm 5 mps 756 mmHg 63%
    12:00 +13°C° 0 mm 5 mps 756 mmHg 61%
    13:00 +14°C° 0 mm 5 mps 755 mmHg 60%
    14:00 +15°C° 0 mm 5 mps 755 mmHg 58%
    15:00 +14°C° 0 mm 5 mps 755 mmHg 63%
    16:00 +13°C° 0 mm 4 mps 755 mmHg 67%
    17:00 +13°C° 0 mm 4 mps 755 mmHg 72%
    18:00 +12°C° 0 mm 4 mps 755 mmHg 75%
    19:00 +11°C° 0 mm 4 mps 755 mmHg 79%
    20:00 +9°C° 0 mm 5 mps 755 mmHg 82%
    21:00 +8°C° 0 mm 5 mps 755 mmHg 84%
    22:00 +8°C° 0 mm 5 mps 755 mmHg 86%
    23:00 +8°C° 0 mm 5 mps 756 mmHg 87%

    24 February, Friday

    Time Temperature Precipitation Wind Pressure Humidity
    00:00 +8°C° 0 mm 5 mps 755 mmHg 89%
    01:00 +7°C° 0 mm 5 mps 755 mmHg 90%
    02:00 +7°C° 0 mm 5 mps 755 mmHg 91%
    03:00 +7°C° 0 mm 5 mps 754 mmHg 92%
    04:00 +7°C° 0 mm 6 mps 754 mmHg 92%
    05:00 +7°C° 0 mm 6 mps 754 mmHg 93%
    06:00 +7°C° 0 mm 6 mps 754 mmHg 92%
    07:00 +8°C° 0 mm 6 mps 754 mmHg 91%
    08:00 +8°C° 0 mm 6 mps 754 mmHg 91%
    09:00 +10°C° 0 mm 7 mps 754 mmHg 85%
    10:00 +11°C° 0 mm 7 mps 754 mmHg 79%
    11:00 +14°C° 0 mm 7 mps 754 mmHg 73%
    12:00 +14°C° 0 mm 7 mps 753 mmHg 69%
    13:00 +15°C° 0 mm 7 mps 753 mmHg 66%
    14:00 +16°C° 0 mm 7 mps 753 mmHg 63%
    15:00 +15°C° 0 mm 6 mps 753 mmHg 66%
    16:00 +15°C° 0 mm 6 mps 753 mmHg 69%
    17:00 +14°C° 0 mm 5 mps 753 mmHg 72%
    18:00 +13°C° 0 mm 6 mps 753 mmHg 76%
    19:00 +11°C° 0 mm 6 mps 753 mmHg 79%
    20:00 +10°C° 0 mm 6 mps 754 mmHg 82%
    21:00 +9°C° 0 mm 6 mps 754 mmHg 83%
    22:00 +9°C° 0 mm 6 mps 754 mmHg 85%
    23:00 +9°C° 0 mm 6 mps 754 mmHg 86%

    25 February, Saturday

    Time Temperature Precipitation Wind Pressure Humidity
    00:00 +9°C° 0 mm 6 mps 753 mmHg 87%
    01:00 +9°C° 0 mm 6 mps 753 mmHg 88%
    02:00 +9°C° 0 mm 7 mps 753 mmHg 88%
    03:00 +9°C° 0 mm 6 mps 753 mmHg 89%
    04:00 +9°C° 0 mm 6 mps 753 mmHg 89%
    05:00 +8°C° 0 mm 6 mps 753 mmHg 89%
    06:00 +8°C° 0.1 mm 6 mps 753 mmHg 89%
    07:00 +8°C° 0.1 mm 5 mps 754 mmHg 88%
    08:00 +9°C° 0.1 mm 5 mps 754 mmHg 87%
    09:00 +8°C° 0.8 mm 6 mps 755 mmHg 86%
    10:00 +6°C° 0.8 mm 7 mps 756 mmHg 85%
    11:00 +6°C° 0.8 mm 8 mps 757 mmHg 84%
    12:00 +5°C° 0.8 mm 7 mps 758 mmHg 84%
    13:00 +4°C° 0.8 mm 7 mps 759 mmHg 84%
    14:00 +4°C° 0.8 mm 6 mps 760 mmHg 85%
    15:00 +5°C° 0.2 mm 5 mps 760 mmHg 84%
    16:00 +5°C° 0.2 mm 3 mps 761 mmHg 83%
    17:00 +6°C° 0.2 mm 2 mps 761 mmHg 82%
    18:00 +5°C° 0 mm 2 mps 762 mmHg 85%
    19:00 +4°C° 0 mm 2 mps 763 mmHg 88%
    20:00 +4°C° 0 mm 1 mps 763 mmHg 91%
    21:00 +3°C° 0 mm 2 mps 764 mmHg 92%
    22:00 +3°C° 0 mm 2 mps 764 mmHg 92%
    23:00 +2°C° 0 mm 2 mps 764 mmHg 92%

    26 February, Sunday

    Time Temperature Precipitation Wind Pressure Humidity
    00:00 +2°C° 0 mm 2 mps 764 mmHg 92%
    01:00 +2°C° 0 mm 2 mps 764 mmHg 91%
    02:00 +2°C° 0 mm 2 mps 764 mmHg 91%
    03:00 +2°C° 0 mm 2 mps 763 mmHg 90%
    04:00 +2°C° 0 mm 2 mps 763 mmHg 90%
    05:00 +2°C° 0 mm 2 mps 762 mmHg 89%
    06:00 +1°C° 0 mm 3 mps 762 mmHg 87%
    07:00 +2°C° 0 mm 3 mps 762 mmHg 86%
    08:00 +2°C° 0 mm 3 mps 762 mmHg 84%
    09:00 +4°C° 0 mm 4 mps 762 mmHg 78%
    10:00 +6°C° 0 mm 4 mps 761 mmHg 73%
    11:00 +7°C° 0 mm 4 mps 761 mmHg 67%
    12:00 +8°C° 0 mm 4 mps 760 mmHg 66%
    13:00 +10°C° 0 mm 4 mps 760 mmHg 65%
    14:00 +11°C° 0 mm 4 mps 759 mmHg 63%
    15:00 +11°C° 0 mm 3 mps 759 mmHg 68%
    16:00 +10°C° 0 mm 3 mps 758 mmHg 72%
    17:00 +10°C° 0 mm 3 mps 758 mmHg 76%
    18:00 +9°C° 0 mm 3 mps 758 mmHg 80%
    19:00 +8°C° 0 mm 3 mps 758 mmHg 83%
    20:00 +5°C° 0 mm 3 mps 758 mmHg 87%
    21:00 +5°C° 0 mm 3 mps 758 mmHg 87%
    22:00 +5°C° 0 mm 3 mps 758 mmHg 87%
    23:00 +5°C° 0 mm 3 mps 758 mmHg 86%
    Show more